User: anonymous   Login
Location: Innsbruck
(47.2657°N, 11.3914°E)
Time: 04:05:10
(UTC+02:00)
Language:

ISS - Orbit

View from above orbital plane
View from above orbital plane
View from above satellite
View from above satellite

Ground track
Ground track

The orbit data is extracted from the following two-line orbital elements,

1 25544U 98067A   21206.81501715  .00003102  00000-0  64707-4 0  9993
2 25544  51.6427 151.7042 0001244 199.0709 250.2237 15.48865789294583
Epoch (UTC): 25 July 2021 19:33:37
Eccentricity: 0.0001244
inclination: 51.6427°
perigee height: 419 km
apogee height: 421 km
right ascension of ascending node: 151.7042°
argument of perigee: 199.0709°
revolutions per day: 15.48865789
mean anomaly at epoch: 250.2237°
orbit number at epoch: 29458

The dashed part of the orbit path shows where the satellite is in the earth's shadow,  

DLR